Tracking 17938 objects as of 21-February-2017
HD Live streaming from Space Station
objects crossing your sky now

INTELSAT 605

Track INTELSAT 605 now!
INTELSAT 605 is classified as:


NORAD ID: 21653
Int'l Code: 1991-055A
Perigee: 36,038.9 km
Apogee: 36,081.9 km
Inclination: 10.0 °
Period: 1,449.7 minutes
Semi major axis: 42431 km
RCS: 0.754 m2 (medium)
Launch date: August 14, 1991
Source: International Telecommunications Satellite Organization (ITSO)
Launch site: FRENCH GUIANA (FRGUI)

Inclined orbit; 64 C-band, 24 Ku-band; Broadcasting, business services, direct-to-home TV broadcasting, telecommunications, VSAT networks; Atlantic Ocean region.
Your satellite tracking list
Your tracking list is empty





NASA's NSSDC Master Catalog

Two Line Element Set (TLE):
1 21653U 91055A   17050.43712713 -.00000090  00000-0  00000+0 0  9997
2 21653   9.9648  41.9921 0005064 225.0448 227.1205  0.99328106 93156
Source of the keplerian elements: AFSPC